H-2A DEB *, 48551

Orbit data source: Space-Track

H-2A DEB *, 48551 is space debris in SSO originally from a launch on Mon, 29 Oct 2018 UTC launched from the Tanegashima Space Center (TNSTA). Debris objects in space refer to the collection of defunct objects orbiting the Earth. Examples of debris include non-operational satellites, rocket bodies, and fragments generated from explosions, collisions, or faulty payload assembly.

Loading next visibility...
Identifier
48551, 2018-084DF
Orbit
SSO
Country
Flag of JPJP / JPN
Related business
Manufacturer
MHI Tobishima
Mission
Spacecraft
Bus & Motor
Unknown
Mass
Unknown
Launch date (UTC)
2018-10-29 (7 years ago)
Launch vehicle
Unknown
Launch site
Tanegashima Space Center (TNSTA)
Object type
Payload
Rocket body
Debris
Shape & HBR
Unknown shape, 0.1 m
Radar Cross Section
Small (<0.1 m²)

Expand to show TLE details & history
Last TLE update: 9 hours ago

TLE from 9 hours ago
0 H-2A DEB *
1 48551U 18084DF  25286.91291081  .00002142  00000-0  40394-3 0  9990
2 48551  97.9766 159.6692 0031208  61.0663 299.3664 14.65201896245982
Epoch: 2025-10-13T21:54Z
TLE epoch observation values (Epoch: 2025-10-13T21:54:35.493Z)
Latitude
-0.00002°
Longitude
168.31243°
Altitude
668.68 km
Speed
7.528 km/s
True Right ascension
10h 38m 40s
True Declination
0° 00' 00"
Sunlit
Object was in daylight at epoch
Visualization orbit readout
Latitude
Unknown
Longitude
Unknown
Altitude
Unknown
Speed
Unknown
Apparent Right ascension
Unknown
Apparent Declination
Unknown
Sunlit
N/A
Visualization observer readout
Local Sidereal Time
01:32:07
Azimuth
Unknown
Elevation
Unknown
Doppler factor
Unknown
Orbital elements
Apogee altitude
695.498 km
Perigee altitude
651.485 km
Semi-major axis
7,051.628 km
Eccentricity
0.00312
Inclination
97.9766°
RAAN
159.6692°
Arg. of periapsis
61.0663°
True anomaly
299.05414°
Mean anomaly
299.3664°
Eccentric anomaly
299.21033°
Mean motion
3.6653 °/min
Orbital period
98.22 mins
BSTAR
0.00040394
Loading maneuver chart data...
Computing Atmospheric mass density...
Loading historical data...
Loading historical data...
Loading historical data...
Loading historical data...
Loading historical data...
Loading historical data...
Loading historical data...

Documentation

Showing up to 5 results
|